Current Conditions
Partly Cloudy
Conditions



Pressure
1011.85 (hPa) - 29.88 (inHG)
Visibility

9.7 (km) - 6.0 (miles)
   Temperature
8  °C
Temperature
7  °C
Dewpoint
93  %
 Humidity
   Wind Speed
2.7  m/s
6  mph
10  km/h
5  kts
   Wind Direction
N
45°
E
90°
135°
S
180°
225°
W
270°
315°
 180°

Due South
   Airport Data
ESGG
Gothenburg-Landvetter Airport
Metar :ESGG 132350Z 18005KT 9999 FEW018 OVC059 08/07 Q1012
Fri 14th June 00:50 am
   Raw Metar Info
Raw METAR is the most common format in the world for the transmission of observational weather data. It is highly standardized through the International Civil Aviation Organization (ICAO), which allows it to be understood throughout most of the world.
   API Info
Data Provided by
https://www.checkwx.com/weather/ESGG

Aviation Weather providing METAR, TAF, AIRMET, SIGMET and OUTLOOK Weather Reports
   © Info
CSS/SVG/PHP scripts were developed by weather34.com for use in the weather34 template © 2015-2024

Guide Info provided by Metar-Wikipedia